DD5ZT-13 Weather Reports


Display with metric or nautical units.
time (UTC)temp
F
wind
direction
speed
MPH
gust
MPH
rain 1hr
in
rain 24hr
in
rain mn
in
humidity
%
barometer
mb
20260506101807 64 0.0 0.0 0.00 0.00 0.00 58 1010.4
20260506101800 64 0.0 0.0 0.00 0.00 0.00 58 1010.4
20260506100807 64 0.0 0.0 0.00 0.00 0.00 58 1010.4
20260506100735 64 0.0 0.0 0.00 0.00 0.00 58 1010.4
20260506095807 64 0.0 0.0 0.00 0.00 0.00 58 1010.4
20260506095710 64 0.0 0.0 0.00 0.00 0.00 58 1010.4
20260506094733 64 0.0 0.0 0.00 0.00 0.00 58 1010.3
20260506094644 64 0.0 0.0 0.00 0.00 0.00 58 1010.3
20260506093619 64 0.0 0.0 0.00 0.00 0.00 58 1010.2
20260506092807 64 0.0 0.0 0.00 0.00 0.00 58 1010.3
20260506092554 64 0.0 0.0 0.00 0.00 0.00 58 1010.3
20260506091625 64 0.0 0.0 0.00 0.00 0.00 58 1010.2
20260506091529 64 0.0 0.0 0.00 0.00 0.00 58 1010.2
20260506090807 64 0.0 0.0 0.00 0.00 0.00 58 1010.3
20260506090504 64 0.0 0.0 0.00 0.00 0.00 58 1010.3
20260506085439 64 0.0 0.0 0.00 0.00 0.00 59 1010.3
20260506084512 64 0.0 0.0 0.00 0.00 0.00 59 1010.2
20260506084414 64 0.0 0.0 0.00 0.00 0.00 59 1010.2
20260506083807 64 0.0 0.0 0.00 0.00 0.00 59 1010.1
20260506083348 64 0.0 0.0 0.00 0.00 0.00 59 1010.1
20260506082323 64 0.0 0.0 0.00 0.00 0.00 59 1010.0
20260506081311 64 0.0 0.0 0.00 0.00 0.00 59 1010.1
20260506081258 64 0.0 0.0 0.00 0.00 0.00 59 1010.1
20260506073125 63 0.0 0.0 0.00 0.00 0.00 59 1009.9
20260506073118 63 0.0 0.0 0.00 0.00 0.00 59 1009.9
20260506072053 63 0.0 0.0 0.00 0.00 0.00 59 1010.0
20260506071307 63 0.0 0.0 0.00 0.00 0.00 59 1009.9
20260506071027 63 0.0 0.0 0.00 0.00 0.00 59 1009.9
20260506070232 63 0.0 0.0 0.00 0.00 0.00 59 1010.0
20260506061941 63 0.0 0.0 0.00 0.00 0.00 60 1010.1
20260506061822 63 0.0 0.0 0.00 0.00 0.00 60 1010.1
20260506060809 63 0.0 0.0 0.00 0.00 0.00 60 1010.1
20260506060757 63 0.0 0.0 0.00 0.00 0.00 60 1010.1
20260506050620 63 0.0 0.0 0.00 0.00 0.00 60 1010.2
20260506050526 63 0.0 0.0 0.00 0.00 0.00 60 1010.2
20260506044435 63 0.0 0.0 0.00 0.00 0.00 60 1010.4
20260506043441 63 0.0 0.0 0.00 0.00 0.00 61 1010.3
20260506043410 63 0.0 0.0 0.00 0.00 0.00 61 1010.3
20260506042437 63 0.0 0.0 0.00 0.00 0.00 61 1010.4
20260506042345 63 0.0 0.0 0.00 0.00 0.00 61 1010.4
20260506041344 62 0.0 0.0 0.00 0.00 0.00 61 1010.3
20260506041320 62 0.0 0.0 0.00 0.00 0.00 61 1010.3
20260506040353 62 0.0 0.0 0.00 0.00 0.00 61 1010.3
20260506040255 62 0.0 0.0 0.00 0.00 0.00 61 1010.3
20260506035230 62 0.0 0.0 0.00 0.00 0.00 61 1010.3
20260506034308 62 0.0 0.0 0.00 0.00 0.00 62 1010.3
20260506034205 62 0.0 0.0 0.00 0.00 0.00 62 1010.3
20260506033203 62 0.0 0.0 0.00 0.00 0.00 62 1010.3
20260506033140 62 0.0 0.0 0.00 0.00 0.00 62 1010.3
20260506032136 61 0.0 0.0 0.00 0.00 0.00 63 1010.4
20260506032114 61 0.0 0.0 0.00 0.00 0.00 63 1010.4
20260506031214 60 0.0 0.0 0.00 0.00 0.00 65 1010.5
20260506031049 60 0.0 0.0 0.00 0.00 0.00 65 1010.5
20260506030125 54 0.0 0.0 0.00 0.00 0.00 64 1010.6
20260506030024 54 0.0 0.0 0.00 0.00 0.00 64 1010.6
20260506025239 54 0.0 0.0 0.00 0.00 0.00 63 1010.6
20260506024959 54 0.0 0.0 0.00 0.00 0.00 63 1010.6
20260506024239 55 0.0 0.0 0.00 0.00 0.00 59 1010.6
20260506023934 55 0.0 0.0 0.00 0.00 0.00 59 1010.6
20260506023125 58 0.0 0.0 0.00 0.00 0.00 65 1010.6
20260506022909 58 0.0 0.0 0.00 0.00 0.00 65 1010.6
20260506022239 57 0.0 0.0 0.00 0.00 0.00 62 1010.7
20260506021844 57 0.0 0.0 0.00 0.00 0.00 62 1010.7
20260506020830 56 0.0 0.0 0.00 0.00 0.00 59 1010.7
20260506020818 56 0.0 0.0 0.00 0.00 0.00 59 1010.7
20260506015800 57 0.0 0.0 0.00 0.00 0.00 64 1010.9
20260506015753 57 0.0 0.0 0.00 0.00 0.00 64 1010.9
20260506013739 56 0.0 0.0 0.00 0.00 0.00 68 1010.9
20260506013703 56 0.0 0.0 0.00 0.00 0.00 68 1010.9
20260506012719 55 0.0 0.0 0.00 0.00 0.00 65 1011.1
20260506012638 55 0.0 0.0 0.00 0.00 0.00 65 1011.1
20260506011625 54 0.0 0.0 0.00 0.00 0.00 66 1011.1
20260506011613 54 0.0 0.0 0.00 0.00 0.00 66 1011.1
20260506010739 53 0.0 0.0 0.00 0.00 0.00 67 1011.1
20260506010548 53 0.0 0.0 0.00 0.00 0.00 67 1011.1
20260506005522 53 0.0 0.0 0.00 0.00 0.00 68 1010.9
20260506004625 53 0.0 0.0 0.00 0.00 0.00 69 1011.0
20260506004457 53 0.0 0.0 0.00 0.00 0.00 69 1011.0
20260506003739 53 0.0 0.0 0.00 0.00 0.00 65 1011.2
20260506003432 53 0.0 0.0 0.00 0.00 0.00 65 1011.2
20260506002407 53 0.0 0.0 0.00 0.00 0.00 63 1011.4
20260506001625 53 0.0 0.0 0.00 0.00 0.00 62 1011.4
20260506001342 53 0.0 0.0 0.00 0.00 0.00 62 1011.4
20260506000317 53 0.0 0.0 0.00 0.00 0.00 63 1011.5
20260505235307 54 0.0 0.0 0.00 0.00 0.00 62 1011.5
20260505235252 54 0.0 0.0 0.00 0.00 0.00 62 1011.5
20260505234239 53 0.0 0.0 0.00 0.00 0.00 59 1011.7
20260505234227 53 0.0 0.0 0.00 0.00 0.00 59 1011.7
20260505233224 53 0.0 0.0 0.00 0.00 0.00 57 1011.6
20260505233201 53 0.0 0.0 0.00 0.00 0.00 57 1011.6
20260505232239 54 0.0 0.0 0.00 0.00 0.00 57 1011.6
20260505232136 54 0.0 0.0 0.00 0.00 0.00 57 1011.6
20260505231111 55 0.0 0.0 0.00 0.00 0.00 55 1011.8
20260505230125 56 0.0 0.0 0.00 0.00 0.00 52 1011.7
20260505230046 56 0.0 0.0 0.00 0.00 0.00 52 1011.7
20260505225239 56 0.0 0.0 0.00 0.00 0.00 53 1011.8
20260505225021 56 0.0 0.0 0.00 0.00 0.00 53 1011.8
20260505224240 57 0.0 0.0 0.00 0.00 0.00 56 1011.9
20260505223956 57 0.0 0.0 0.00 0.00 0.00 56 1011.9
20260505223019 57 0.0 0.0 0.00 0.00 0.00 51 1012.0
20260505222931 57 0.0 0.0 0.00 0.00 0.00 51 1012.0
20260505222239 58 0.0 0.0 0.00 0.00 0.00 60 1012.0
20260505221905 58 0.0 0.0 0.00 0.00 0.00 60 1012.0
20260505220919 58 0.0 0.0 0.00 0.00 0.00 59 1012.0
20260505220840 58 0.0 0.0 0.00 0.00 0.00 59 1012.0
20260505220200 56 0.0 0.0 0.00 0.00 0.00 64 1012.0
20260505215815 56 0.0 0.0 0.00 0.00 0.00 64 1012.0
20260505214803 57 0.0 0.0 0.00 0.00 0.00 59 1012.1
20260505214750 57 0.0 0.0 0.00 0.00 0.00 59 1012.1
20260505213725 59 0.0 0.0 0.00 0.00 0.00 57 1012.1
20260505212740 60 0.0 0.0 0.00 0.00 0.00 54 1012.2
20260505212700 60 0.0 0.0 0.00 0.00 0.00 54 1012.2
20260505211731 63 0.0 0.0 0.00 0.00 0.00 58 1012.2
20260505211635 63 0.0 0.0 0.00 0.00 0.00 58 1012.2
20260505210609 63 0.0 0.0 0.00 0.00 0.00 50 1012.2
20260505205737 63 0.0 0.0 0.00 0.00 0.00 50 1012.2
20260505205544 63 0.0 0.0 0.00 0.00 0.00 50 1012.2
20260505204625 63 0.0 0.0 0.00 0.00 0.00 53 1012.1
20260505204519 63 0.0 0.0 0.00 0.00 0.00 53 1012.1
20260505203739 62 0.0 0.0 0.00 0.00 0.00 49 1012.2
20260505203454 62 0.0 0.0 0.00 0.00 0.00 49 1012.2
20260505202508 63 0.0 0.0 0.00 0.00 0.00 50 1012.0
20260505202429 63 0.0 0.0 0.00 0.00 0.00 50 1012.0
20260505201625 64 0.0 0.0 0.00 0.00 0.00 50 1011.9
20260505201404 64 0.0 0.0 0.00 0.00 0.00 50 1011.9
20260505200739 64 0.0 0.0 0.00 0.00 0.00 49 1011.9
20260505200339 64 0.0 0.0 0.00 0.00 0.00 49 1011.9
20260505195314 64 0.0 0.0 0.00 0.00 0.00 51 1011.9
20260505194625 64 0.0 0.0 0.00 0.00 0.00 51 1011.9
20260505194248 64 0.0 0.0 0.00 0.00 0.00 51 1011.9
20260505193223 65 0.0 0.0 0.00 0.00 0.00 53 1011.9
20260505192239 64 0.0 0.0 0.00 0.00 0.00 53 1012.0
20260505192158 64 0.0 0.0 0.00 0.00 0.00 53 1012.0
20260505191133 64 0.0 0.0 0.00 0.00 0.00 52 1011.9
20260505185239 65 0.0 0.0 0.00 0.00 0.00 52 1011.9
20260505185043 65 0.0 0.0 0.00 0.00 0.00 52 1011.9
20260505184050 65 0.0 0.0 0.00 0.00 0.00 52 1011.9
20260505184018 65 0.0 0.0 0.00 0.00 0.00 52 1011.9
20260505183125 64 0.0 0.0 0.00 0.00 0.00 47 1011.8
20260505182952 64 0.0 0.0 0.00 0.00 0.00 47 1011.8
20260505182239 65 0.0 0.0 0.00 0.00 0.00 53 1011.9
20260505181927 65 0.0 0.0 0.00 0.00 0.00 53 1011.9
20260505181226 65 0.0 0.0 0.00 0.00 0.00 49 1012.0
20260505180902 65 0.0 0.0 0.00 0.00 0.00 49 1012.0
20260505175837 65 0.0 0.0 0.00 0.00 0.00 56 1011.9
20260505174812 65 0.0 0.0 0.00 0.00 0.00 51 1011.8
20260505173804 65 0.0 0.0 0.00 0.00 0.00 57 1011.8
20260505173747 65 0.0 0.0 0.00 0.00 0.00 57 1011.8
20260505172739 64 0.0 0.0 0.00 0.00 0.00 56 1011.8
20260505172722 64 0.0 0.0 0.00 0.00 0.00 56 1011.8
20260505171739 63 0.0 0.0 0.00 0.00 0.00 49 1011.8
20260505171657 63 0.0 0.0 0.00 0.00 0.00 49 1011.8
20260505170739 64 0.0 0.0 0.00 0.00 0.00 56 1012.0
20260505170631 64 0.0 0.0 0.00 0.00 0.00 56 1012.0
20260505165719 64 0.0 0.0 0.00 0.00 0.00 52 1011.9
20260505165606 64 0.0 0.0 0.00 0.00 0.00 52 1011.9
20260505164625 64 0.0 0.0 0.00 0.00 0.00 54 1012.0
20260505164541 64 0.0 0.0 0.00 0.00 0.00 54 1012.0
20260505163739 64 0.0 0.0 0.00 0.00 0.00 54 1012.1
20260505163516 64 0.0 0.0 0.00 0.00 0.00 54 1012.1
20260505162717 64 0.0 0.0 0.00 0.00 0.00 62 1012.0
20260505162451 64 0.0 0.0 0.00 0.00 0.00 62 1012.0
20260505161624 65 0.0 0.0 0.00 0.00 0.00 60 1012.1
20260505161426 65 0.0 0.0 0.00 0.00 0.00 60 1012.1
20260505160739 64 0.0 0.0 0.00 0.00 0.00 61 1012.0
20260505160400 64 0.0 0.0 0.00 0.00 0.00 61 1012.0
20260505152239 64 0.0 0.0 0.00 0.00 0.00 63 1012.1
20260505152220 64 0.0 0.0 0.00 0.00 0.00 63 1012.1
20260505151212 63 0.0 0.0 0.00 0.00 0.00 64 1012.2
20260505151155 63 0.0 0.0 0.00 0.00 0.00 64 1012.2
20260505150130 64 0.0 0.0 0.00 0.00 0.00 65 1012.3
20260505124952 67 0.0 0.0 0.00 0.00 0.00 64 1012.9
20260505121622 67 0.0 0.0 0.00 0.00 0.00 65 1013.0
20260505120440 67 0.0 0.0 0.00 0.00 0.00 65 1013.1
20260505114936 67 0.0 0.0 0.00 0.00 0.00 65 1013.1
20260505110533 67 0.0 0.0 0.00 0.00 0.00 66 1013.1